Time,TemperatureF,DewpointF,PressureIn,WindDirection,WindDirectionDegrees,WindSpeedMPH,WindSpeedGustMPH,Humidity,HourlyPrecipIn,Conditions,Clouds,dailyrainin,SoftwareType,DateUTC
2013-02-16 09:05:00,38.2,34.3,29.93,SSW,203,0.7,0.7,86,0.00,,,0.00,WUHU216HW,2013-02-16 14:05:00,
2013-02-16 09:10:00,38.3,34.2,29.93,SW,225,0.9,1.8,85,0.00,,,0.00,WUHU216HW,2013-02-16 14:10:00,
2013-02-16 09:15:00,38.5,34.4,29.93,WSW,248,2.0,2.0,85,0.00,,,0.00,WUHU216HW,2013-02-16 14:15:00,
2013-02-16 09:20:00,38.7,34.3,29.93,ENE,68,1.1,2.5,84,0.00,,,0.00,WUHU216HW,2013-02-16 14:20:00,
2013-02-16 09:25:00,39.1,34.7,29.93,SSW,203,0.4,2.5,84,0.00,,,0.00,WUHU216HW,2013-02-16 14:25:00,
2013-02-16 09:30:00,39.2,34.6,29.93,ESE,113,1.1,2.2,83,0.00,,,0.00,WUHU216HW,2013-02-16 14:30:00,
2013-02-16 09:36:00,39.4,34.4,29.93,South,180,1.1,3.4,82,0.00,,,0.00,WUHU216HW,2013-02-16 14:36:00,
2013-02-16 09:41:00,39.4,34.4,29.93,West,270,1.8,3.4,82,0.00,,,0.00,WUHU216HW,2013-02-16 14:41:00,
2013-02-16 09:46:00,39.4,34.1,29.92,SSE,158,0.2,1.8,81,0.00,,,0.00,WUHU216HW,2013-02-16 14:46:00,
2013-02-16 09:51:00,39.2,33.9,29.93,SSW,203,0.4,1.8,81,0.00,,,0.00,WUHU216HW,2013-02-16 14:51:00,
2013-02-16 09:56:00,39.4,34.1,29.93,SW,225,0.9,1.1,81,0.00,,,0.00,WUHU216HW,2013-02-16 14:56:00,
2013-02-16 10:01:00,39.6,34.0,29.93,SSW,203,0.9,1.6,80,0.00,,,0.00,WUHU216HW,2013-02-16 15:01:00,
2013-02-16 10:06:00,39.6,34.0,29.93,SSW,203,0.9,1.6,80,0.00,,,0.00,WUHU216HW,2013-02-16 15:06:00,
2013-02-16 10:11:00,39.6,34.0,29.93,West,270,0.7,1.6,80,0.00,,,0.00,WUHU216HW,2013-02-16 15:11:00,
2013-02-16 10:16:00,39.6,34.0,29.93,SSW,203,0.0,1.8,80,0.00,,,0.00,WUHU216HW,2013-02-16 15:16:00,
2013-02-16 10:21:00,39.6,33.7,29.93,SE,135,0.0,1.8,79,0.00,,,0.00,WUHU216HW,2013-02-16 15:21:00,
2013-02-16 10:26:00,40.0,33.9,29.92,SSE,158,0.9,2.0,79,0.00,,,0.00,WUHU216HW,2013-02-16 15:26:00,
2013-02-16 10:31:00,40.1,34.1,29.93,South,180,0.2,2.0,79,0.00,,,0.00,WUHU216HW,2013-02-16 15:31:00,
2013-02-16 10:36:00,40.3,34.3,29.92,SSE,158,1.1,1.3,79,0.00,,,0.00,WUHU216HW,2013-02-16 15:36:00,
2013-02-16 10:41:00,40.5,34.5,29.92,SSE,158,1.1,1.8,79,0.00,,,0.00,WUHU216HW,2013-02-16 15:41:00,
2013-02-16 10:47:00,40.7,34.3,29.92,SSE,158,0.9,1.8,78,0.00,,,0.00,WUHU216HW,2013-02-16 15:47:00,
2013-02-16 10:52:00,40.7,34.3,29.92,South,180,0.2,1.8,78,0.00,,,0.00,WUHU216HW,2013-02-16 15:52:00,
2013-02-16 10:57:00,40.7,33.9,29.92,ESE,113,1.1,1.1,77,0.00,,,0.00,WUHU216HW,2013-02-16 15:57:00,
2013-02-16 11:02:00,40.7,33.9,29.93,SW,225,1.3,1.6,77,0.00,,,0.00,WUHU216HW,2013-02-16 16:02:00,
2013-02-16 11:07:00,40.9,33.9,29.92,South,180,0.4,1.6,76,0.00,,,0.00,WUHU216HW,2013-02-16 16:07:00,
2013-02-16 11:12:00,40.9,33.9,29.92,SW,225,0.9,1.6,76,0.00,,,0.00,WUHU216HW,2013-02-16 16:12:00,
2013-02-16 11:17:00,40.9,33.9,29.92,SW,225,0.9,0.9,76,0.00,,,0.00,WUHU216HW,2013-02-16 16:17:00,
2013-02-16 11:41:00,41.0,33.3,29.91,SE,135,2.9,2.9,74,0.00,,,0.00,WUHU216HW,2013-02-16 16:41:00,
2013-02-16 11:46:00,41.0,33.3,29.90,SW,225,1.1,2.9,74,0.00,,,0.00,WUHU216HW,2013-02-16 16:46:00,
2013-02-16 11:51:00,41.0,33.3,29.90,WSW,248,1.1,2.5,74,0.00,,,0.00,WUHU216HW,2013-02-16 16:51:00,
2013-02-16 11:56:00,41.0,33.0,29.89,SW,225,1.1,2.5,73,0.00,,,0.00,WUHU216HW,2013-02-16 16:56:00,
2013-02-16 12:01:00,41.2,33.2,29.89,WSW,248,0.9,1.8,73,0.00,,,0.00,WUHU216HW,2013-02-16 17:01:00,
2013-02-16 12:06:00,41.2,33.2,29.89,South,180,1.6,2.5,73,0.00,,,0.00,WUHU216HW,2013-02-16 17:06:00,
2013-02-16 12:12:00,41.0,33.0,29.89,SE,135,1.1,2.5,73,0.00,,,0.00,WUHU216HW,2013-02-16 17:12:00,
2013-02-16 12:17:00,41.0,32.7,29.89,ESE,113,0.9,2.5,72,0.00,,,0.00,WUHU216HW,2013-02-16 17:17:00,
2013-02-16 12:22:00,41.0,32.7,29.88,SSW,203,1.1,2.5,72,0.00,,,0.00,WUHU216HW,2013-02-16 17:22:00,
2013-02-16 12:27:00,41.0,32.7,29.88,SSE,158,0.4,2.2,72,0.00,,,0.00,WUHU216HW,2013-02-16 17:27:00,
2013-02-16 12:32:00,40.9,32.2,29.88,SW,225,1.1,2.2,71,0.00,,,0.00,WUHU216HW,2013-02-16 17:32:00,
2013-02-16 12:37:00,40.7,32.3,29.88,ESE,113,0.0,2.9,72,0.00,,,0.00,WUHU216HW,2013-02-16 17:37:00,
2013-02-16 12:42:00,40.7,32.1,29.88,WSW,248,1.1,2.9,71,0.00,,,0.00,WUHU216HW,2013-02-16 17:42:00,
2013-02-16 12:47:00,40.7,32.1,29.87,West,270,1.8,2.5,71,0.00,,,0.00,WUHU216HW,2013-02-16 17:47:00,
2013-02-16 12:53:00,40.5,32.1,29.87,WSW,248,2.5,2.5,72,0.00,,,0.00,WUHU216HW,2013-02-16 17:53:00,
2013-02-16 12:58:00,40.3,32.0,29.87,SW,225,2.2,2.5,72,0.00,,,0.00,WUHU216HW,2013-02-16 17:58:00,
2013-02-16 13:03:00,40.1,31.8,29.87,ESE,113,0.9,2.2,72,0.00,,,0.00,WUHU216HW,2013-02-16 18:03:00,
2013-02-16 13:08:00,40.3,32.0,29.87,South,180,0.4,1.3,72,0.00,,,0.00,WUHU216HW,2013-02-16 18:08:00,
2013-02-16 13:13:00,40.5,32.5,29.87,SE,135,0.4,1.1,73,0.00,,,0.00,WUHU216HW,2013-02-16 18:13:00,
2013-02-16 13:18:00,40.3,32.0,29.88,SE,135,0.9,3.1,72,0.00,,,0.00,WUHU216HW,2013-02-16 18:18:00,
2013-02-16 13:23:00,40.1,31.8,29.88,SW,225,0.9,3.1,72,0.00,,,0.00,WUHU216HW,2013-02-16 18:23:00,
2013-02-16 13:28:00,40.1,31.8,29.88,SE,135,2.0,2.0,72,0.00,,,0.00,WUHU216HW,2013-02-16 18:28:00,
2013-02-16 13:33:00,40.0,31.6,29.87,ESE,113,1.1,2.0,72,0.00,,,0.00,WUHU216HW,2013-02-16 18:33:00,
2013-02-16 13:38:00,40.0,31.6,29.86,ESE,113,2.5,2.5,72,0.00,,,0.00,WUHU216HW,2013-02-16 18:38:00,
2013-02-16 13:43:00,40.0,31.6,29.86,West,270,1.8,2.5,72,0.00,,,0.00,WUHU216HW,2013-02-16 18:43:00,
2013-02-16 13:48:00,40.0,31.3,29.86,SSE,158,1.8,1.8,71,0.00,,,0.00,WUHU216HW,2013-02-16 18:48:00,
2013-02-16 13:53:00,40.0,31.3,29.86,SE,135,0.4,1.8,71,0.00,,,0.00,WUHU216HW,2013-02-16 18:53:00,
2013-02-16 13:58:00,40.0,31.3,29.87,ESE,113,1.6,1.8,71,0.00,,,0.00,WUHU216HW,2013-02-16 18:58:00,
2013-02-16 14:04:00,40.0,31.3,29.86,WSW,248,0.4,1.8,71,0.00,,,0.00,WUHU216HW,2013-02-16 19:04:00,
2013-02-16 14:09:00,39.8,31.2,29.86,SW,225,2.2,3.1,71,0.00,,,0.00,WUHU216HW,2013-02-16 19:09:00,
2013-02-16 14:14:00,39.8,31.2,29.86,SW,225,1.8,3.1,71,0.00,,,0.00,WUHU216HW,2013-02-16 19:14:00,
2013-02-16 14:19:00,40.0,31.3,29.85,South,180,1.1,1.8,71,0.00,,,0.00,WUHU216HW,2013-02-16 19:19:00,
2013-02-16 14:24:00,40.0,31.3,29.85,SE,135,0.2,1.1,71,0.00,,,0.00,WUHU216HW,2013-02-16 19:24:00,
2013-02-16 14:29:00,40.0,31.0,29.85,SSW,203,2.5,2.5,70,0.00,,,0.00,WUHU216HW,2013-02-16 19:29:00,
2013-02-16 14:34:00,40.0,30.6,29.85,WSW,248,0.4,2.5,69,0.00,,,0.00,WUHU216HW,2013-02-16 19:34:00,
2013-02-16 14:39:00,39.8,30.4,29.85,SSW,203,1.6,2.5,69,0.00,,,0.00,WUHU216HW,2013-02-16 19:39:00,
2013-02-16 14:44:00,39.6,29.9,29.85,SSW,203,1.3,2.9,68,0.00,,,0.00,WUHU216HW,2013-02-16 19:44:00,
2013-02-16 14:49:00,39.4,29.7,29.85,SW,225,0.2,3.4,68,0.00,,,0.00,WUHU216HW,2013-02-16 19:49:00,
2013-02-16 14:54:00,39.6,30.3,29.84,South,180,0.4,3.4,69,0.00,,,0.00,WUHU216HW,2013-02-16 19:54:00,
2013-02-16 15:00:00,39.6,29.9,29.85,West,270,2.0,2.5,68,0.00,,,0.00,WUHU216HW,2013-02-16 20:00:00,
2013-02-16 15:05:00,39.6,29.9,29.85,SSW,203,1.6,2.5,68,0.00,,,0.00,WUHU216HW,2013-02-16 20:05:00,
2013-02-16 15:10:00,39.4,29.7,29.84,WSW,248,1.1,2.2,68,0.00,,,0.00,WUHU216HW,2013-02-16 20:10:00,
2013-02-16 15:15:00,39.4,29.7,29.84,SW,225,1.6,2.2,68,0.00,,,0.00,WUHU216HW,2013-02-16 20:15:00,
2013-02-16 15:20:00,39.6,29.4,29.84,SW,225,0.4,1.6,67,0.00,,,0.00,WUHU216HW,2013-02-16 20:20:00,
2013-02-16 15:25:00,39.4,29.7,29.84,SSE,158,1.3,1.8,68,0.00,,,0.00,WUHU216HW,2013-02-16 20:25:00,
2013-02-16 15:30:00,39.4,29.7,29.84,SW,225,0.9,1.8,68,0.00,,,0.00,WUHU216HW,2013-02-16 20:30:00,
2013-02-16 15:35:00,39.4,29.7,29.83,South,180,0.2,2.5,68,0.00,,,0.00,WUHU216HW,2013-02-16 20:35:00,
2013-02-16 15:40:00,39.4,29.7,29.84,SW,225,0.4,2.5,68,0.00,,,0.00,WUHU216HW,2013-02-16 20:40:00,
2013-02-16 15:45:00,39.2,29.5,29.84,SSW,203,1.8,1.8,68,0.00,,,0.00,WUHU216HW,2013-02-16 20:45:00,
2013-02-16 15:50:00,39.2,29.5,29.84,WSW,248,1.3,1.8,68,0.00,,,0.00,WUHU216HW,2013-02-16 20:50:00,
2013-02-16 15:55:00,39.2,29.5,29.84,SSW,203,1.3,2.9,68,0.00,,,0.00,WUHU216HW,2013-02-16 20:55:00,
2013-02-16 16:00:00,38.9,29.2,29.84,ESE,113,2.0,2.9,68,0.00,,,0.00,WUHU216HW,2013-02-16 21:00:00,
2013-02-16 16:05:00,38.7,29.3,29.85,South,180,0.2,2.0,69,0.00,,,0.00,WUHU216HW,2013-02-16 21:05:00,
2013-02-16 16:10:00,38.3,29.1,29.85,ESE,113,0.4,1.8,69,0.00,,,0.00,WUHU216HW,2013-02-16 21:10:00,
2013-02-16 16:16:00,38.2,28.9,29.85,ESE,113,1.3,1.3,69,0.00,,,0.00,WUHU216HW,2013-02-16 21:16:00,
2013-02-16 16:21:00,38.2,28.9,29.85,ESE,113,1.3,1.3,69,0.00,,,0.00,WUHU216HW,2013-02-16 21:21:00,
2013-02-16 16:42:00,38.0,29.4,29.84,WSW,248,2.5,2.5,71,0.00,,,0.00,WUHU216HW,2013-02-16 21:42:00,
2013-02-16 16:47:00,38.0,29.4,29.84,WSW,248,2.5,2.5,71,0.00,,,0.00,WUHU216HW,2013-02-16 21:47:00,
2013-02-16 17:00:00,37.6,29.1,29.84,SE,135,0.9,0.9,71,0.00,,,0.00,WUHU216HW,2013-02-16 22:00:00,
2013-02-16 17:05:00,37.6,29.1,29.85,South,180,0.7,1.8,71,0.00,,,0.00,WUHU216HW,2013-02-16 22:05:00,
2013-02-16 17:10:00,37.4,28.6,29.84,East,90,2.2,2.2,70,0.00,,,0.00,WUHU216HW,2013-02-16 22:10:00,
2013-02-16 17:15:00,37.6,29.1,29.84,SE,135,1.3,2.5,71,0.00,,,0.00,WUHU216HW,2013-02-16 22:15:00,
2013-02-16 17:20:00,37.4,29.0,29.84,ESE,113,0.9,3.4,71,0.00,,,0.00,WUHU216HW,2013-02-16 22:20:00,
2013-02-16 17:25:00,37.3,28.8,29.85,South,180,0.2,3.4,71,0.00,,,0.00,WUHU216HW,2013-02-16 22:25:00,
2013-02-16 17:30:00,37.1,28.6,29.84,SW,225,3.6,3.6,71,0.00,,,0.00,WUHU216HW,2013-02-16 22:30:00,
2013-02-16 17:35:00,37.1,28.6,29.85,WSW,248,1.1,3.6,71,0.00,,,0.00,WUHU216HW,2013-02-16 22:35:00,
2013-02-16 17:40:00,37.1,28.6,29.85,SE,135,1.8,4.0,71,0.00,,,0.00,WUHU216HW,2013-02-16 22:40:00,
2013-02-16 17:45:00,36.9,28.1,29.84,SW,225,3.4,4.0,70,0.00,,,0.00,WUHU216HW,2013-02-16 22:45:00,
2013-02-16 17:50:00,36.9,28.5,29.84,SSW,203,1.6,3.4,71,0.00,,,0.00,WUHU216HW,2013-02-16 22:50:00,
2013-02-16 17:55:00,36.7,28.3,29.84,SSW,203,1.8,2.5,71,0.00,,,0.00,WUHU216HW,2013-02-16 22:55:00,
2013-02-16 18:00:00,36.7,28.3,29.84,SSW,203,0.4,1.8,71,0.00,,,0.00,WUHU216HW,2013-02-16 23:00:00,
2013-02-16 18:05:00,36.7,28.3,29.84,SE,135,1.8,3.1,71,0.00,,,0.00,WUHU216HW,2013-02-16 23:05:00,
2013-02-16 18:10:00,36.7,28.3,29.84,West,270,1.1,3.1,71,0.00,,,0.00,WUHU216HW,2013-02-16 23:10:00,
2013-02-16 18:16:00,36.7,28.3,29.84,SW,225,0.7,1.8,71,0.00,,,0.00,WUHU216HW,2013-02-16 23:16:00,
2013-02-16 18:21:00,36.7,28.3,29.84,SE,135,1.1,1.1,71,0.00,,,0.00,WUHU216HW,2013-02-16 23:21:00,
2013-02-16 18:26:00,36.5,28.1,29.84,SSE,158,0.7,3.4,71,0.00,,,0.00,WUHU216HW,2013-02-16 23:26:00,
2013-02-16 18:31:00,36.5,27.7,29.84,ESE,113,0.2,3.4,70,0.00,,,0.00,WUHU216HW,2013-02-16 23:31:00,
2013-02-16 18:36:00,36.5,27.7,29.84,South,180,1.3,3.1,70,0.00,,,0.00,WUHU216HW,2013-02-16 23:36:00,
2013-02-16 18:41:00,36.5,27.4,29.84,NE,45,1.3,3.1,69,0.00,,,0.00,WUHU216HW,2013-02-16 23:41:00,
2013-02-16 18:46:00,36.4,26.8,29.84,ENE,68,1.1,2.5,68,0.00,,,0.00,WUHU216HW,2013-02-16 23:46:00,
2013-02-16 18:51:00,36.4,26.5,29.84,South,180,2.5,3.1,67,0.00,,,0.00,WUHU216HW,2013-02-16 23:51:00,
2013-02-16 18:56:00,36.4,26.5,29.84,SSW,203,0.4,3.1,67,0.00,,,0.00,WUHU216HW,2013-02-16 23:56:00,
2013-02-16 19:01:00,36.4,26.1,29.83,ESE,113,0.4,2.5,66,0.00,,,0.00,WUHU216HW,2013-02-17 00:01:00,
2013-02-16 19:06:00,36.4,26.1,29.84,SW,225,0.9,2.5,66,0.00,,,0.00,WUHU216HW,2013-02-17 00:06:00,
2013-02-16 19:11:00,36.2,25.9,29.84,ESE,113,0.7,2.5,66,0.00,,,0.00,WUHU216HW,2013-02-17 00:11:00,
2013-02-16 19:16:00,36.2,25.6,29.85,ESE,113,0.4,2.0,65,0.00,,,0.00,WUHU216HW,2013-02-17 00:16:00,
2013-02-16 19:22:00,36.0,25.4,29.85,ESE,113,2.5,2.5,65,0.00,,,0.00,WUHU216HW,2013-02-17 00:22:00,
2013-02-16 19:27:00,36.0,25.0,29.84,South,180,2.2,4.7,64,0.00,,,0.00,WUHU216HW,2013-02-17 00:27:00,
2013-02-16 19:32:00,36.0,24.7,29.84,SE,135,2.2,4.7,63,0.00,,,0.00,WUHU216HW,2013-02-17 00:32:00,
2013-02-16 19:37:00,35.8,24.9,29.84,ESE,113,1.1,3.4,64,0.00,,,0.00,WUHU216HW,2013-02-17 00:37:00,
2013-02-16 19:42:00,35.8,24.5,29.84,SSW,203,1.3,3.4,63,0.00,,,0.00,WUHU216HW,2013-02-17 00:42:00,
2013-02-16 19:47:00,35.6,24.3,29.84,WSW,248,3.1,3.1,63,0.00,,,0.00,WUHU216HW,2013-02-17 00:47:00,
2013-02-16 19:52:00,35.6,23.9,29.84,SW,225,0.7,3.1,62,0.00,,,0.00,WUHU216HW,2013-02-17 00:52:00,
2013-02-16 19:57:00,35.6,23.9,29.84,ESE,113,1.3,4.0,62,0.00,,,0.00,WUHU216HW,2013-02-17 00:57:00,
2013-02-16 20:02:00,35.5,23.8,29.84,ENE,68,2.5,4.0,62,0.00,,,0.00,WUHU216HW,2013-02-17 01:02:00,
2013-02-16 20:07:00,35.3,22.9,29.84,East,90,2.0,2.5,60,0.00,,,0.00,WUHU216HW,2013-02-17 01:07:00,
2013-02-16 20:12:00,35.3,23.2,29.83,WSW,248,1.1,2.7,61,0.00,,,0.00,WUHU216HW,2013-02-17 01:12:00,
2013-02-16 20:17:00,35.3,22.9,29.84,ESE,113,0.9,2.7,60,0.00,,,0.00,WUHU216HW,2013-02-17 01:17:00,
2013-02-16 20:23:00,35.3,23.2,29.83,SW,225,2.5,2.5,61,0.00,,,0.00,WUHU216HW,2013-02-17 01:23:00,
2013-02-16 20:28:00,35.1,23.0,29.84,SSE,158,1.1,2.5,61,0.00,,,0.00,WUHU216HW,2013-02-17 01:28:00,
2013-02-16 20:33:00,35.1,22.7,29.83,SSW,203,1.1,4.7,60,0.00,,,0.00,WUHU216HW,2013-02-17 01:33:00,
2013-02-16 20:38:00,34.9,22.5,29.83,South,180,1.1,4.7,60,0.00,,,0.00,WUHU216HW,2013-02-17 01:38:00,
2013-02-16 20:43:00,34.9,22.5,29.84,ESE,113,1.8,2.2,60,0.00,,,0.00,WUHU216HW,2013-02-17 01:43:00,
2013-02-16 20:48:00,34.9,21.3,29.83,South,180,3.4,5.4,57,0.00,,,0.00,WUHU216HW,2013-02-17 01:48:00,
2013-02-16 20:53:00,34.9,22.1,29.83,SSE,158,0.7,5.4,59,0.00,,,0.00,WUHU216HW,2013-02-17 01:53:00,
2013-02-16 20:58:00,34.7,21.4,29.84,SSE,158,0.4,2.0,58,0.00,,,0.00,WUHU216HW,2013-02-17 01:58:00,
2013-02-16 21:03:00,34.7,21.4,29.84,ESE,113,0.4,2.0,58,0.00,,,0.00,WUHU216HW,2013-02-17 02:03:00,
2013-02-16 21:08:00,34.7,20.6,29.83,SW,225,2.2,2.5,56,0.00,,,0.00,WUHU216HW,2013-02-17 02:08:00,
2013-02-16 21:14:00,34.7,21.1,29.83,SSW,203,1.1,2.5,57,0.00,,,0.00,WUHU216HW,2013-02-17 02:14:00,
2013-02-16 21:19:00,34.7,21.1,29.83,East,90,1.1,1.8,57,0.00,,,0.00,WUHU216HW,2013-02-17 02:19:00,
2013-02-16 21:24:00,34.7,21.1,29.83,East,90,1.1,1.8,57,0.00,,,0.00,WUHU216HW,2013-02-17 02:24:00,
2013-02-16 21:48:00,34.4,20.7,29.83,SSW,203,0.2,0.2,57,0.00,,,0.00,WUHU216HW,2013-02-17 02:48:00,
2013-02-16 21:53:00,34.2,20.1,29.83,ESE,113,1.1,2.0,56,0.00,,,0.00,WUHU216HW,2013-02-17 02:53:00,
2013-02-16 21:58:00,34.2,20.1,29.83,ESE,113,2.5,3.6,56,0.00,,,0.00,WUHU216HW,2013-02-17 02:58:00,
2013-02-16 22:03:00,34.2,20.1,29.83,ESE,113,1.8,3.6,56,0.00,,,0.00,WUHU216HW,2013-02-17 03:03:00,
2013-02-16 22:08:00,34.2,20.1,29.83,ESE,113,1.1,4.9,56,0.00,,,0.00,WUHU216HW,2013-02-17 03:08:00,
2013-02-16 22:13:00,34.2,19.6,29.83,SSE,158,4.9,4.9,55,0.00,,,0.00,WUHU216HW,2013-02-17 03:13:00,
2013-02-16 22:19:00,34.2,20.1,29.83,ESE,113,0.7,4.9,56,0.00,,,0.00,WUHU216HW,2013-02-17 03:19:00,
2013-02-16 22:24:00,34.0,19.4,29.83,East,90,1.1,3.4,55,0.00,,,0.00,WUHU216HW,2013-02-17 03:24:00,
2013-02-16 22:29:00,34.0,19.9,29.83,SE,135,1.3,2.9,56,0.00,,,0.00,WUHU216HW,2013-02-17 03:29:00,
2013-02-16 22:34:00,33.8,19.7,29.83,ESE,113,3.1,3.1,56,0.00,,,0.00,WUHU216HW,2013-02-17 03:34:00,
2013-02-16 22:39:00,33.8,19.7,29.83,SE,135,0.7,3.1,56,0.00,,,0.00,WUHU216HW,2013-02-17 03:39:00,
2013-02-16 22:44:00,33.8,19.3,29.82,WSW,248,1.1,1.8,55,0.00,,,0.00,WUHU216HW,2013-02-17 03:44:00,
2013-02-16 22:49:00,33.7,19.5,29.82,ESE,113,1.8,1.8,56,0.00,,,0.00,WUHU216HW,2013-02-17 03:49:00,
2013-02-16 22:54:00,33.7,19.5,29.81,SSW,203,0.4,2.7,56,0.00,,,0.00,WUHU216HW,2013-02-17 03:54:00,
2013-02-16 22:59:00,33.5,19.4,29.81,SSW,203,0.9,2.7,56,0.00,,,0.00,WUHU216HW,2013-02-17 03:59:00,
2013-02-16 23:04:00,33.5,19.4,29.82,ESE,113,2.2,2.5,56,0.00,,,0.00,WUHU216HW,2013-02-17 04:04:00,
2013-02-16 23:09:00,33.5,19.4,29.82,SE,135,2.2,3.1,56,0.00,,,0.00,WUHU216HW,2013-02-17 04:09:00,
2013-02-16 23:15:00,33.5,19.4,29.82,SSE,158,1.8,3.6,56,0.00,,,0.00,WUHU216HW,2013-02-17 04:15:00,
2013-02-16 23:20:00,33.3,19.2,29.82,SE,135,2.0,5.1,56,0.00,,,0.00,WUHU216HW,2013-02-17 04:20:00,
2013-02-16 23:25:00,33.1,19.1,29.81,SE,135,1.6,5.1,56,0.00,,,0.00,WUHU216HW,2013-02-17 04:25:00,
2013-02-16 23:30:00,32.9,18.9,29.81,ESE,113,1.1,3.8,56,0.00,,,0.00,WUHU216HW,2013-02-17 04:30:00,
2013-02-16 23:35:00,32.8,19.2,29.81,ESE,113,3.4,3.8,57,0.00,,,0.00,WUHU216HW,2013-02-17 04:35:00,
2013-02-16 23:40:00,32.8,18.7,29.81,SSW,203,1.3,4.0,56,0.00,,,0.00,WUHU216HW,2013-02-17 04:40:00,
2013-02-16 23:45:00,32.6,18.5,29.81,ESE,113,2.5,4.0,56,0.00,,,0.00,WUHU216HW,2013-02-17 04:45:00,
2013-02-16 23:50:00,32.4,18.8,29.81,ESE,113,3.1,3.8,57,0.00,,,0.00,WUHU216HW,2013-02-17 04:50:00,
2013-02-16 23:55:00,32.4,18.8,29.81,SE,135,0.7,3.8,57,0.00,,,0.00,WUHU216HW,2013-02-17 04:55:00,